Preview of NWS' New Version of Forecast
This preview is not operational and should not be used for support decisions.

Regional Weather Roundup (RWR)

Issued by National Weather Service (NWS)

                            
000
ASUS44 KMEG 230110
RWRTN 
TENNESSEE HOURLY STATE WEATHER ROUNDUP
NATIONAL WEATHER SERVICE MEMPHIS TN
800 PM CDT FRI MAR 22 2019

TNZ002-004-019-021-049-052-054-088>092-230200-
WEST TENNESSEE
  
CITY           SKY/WX    TMP DP  RH WIND       PRES   REMARKS
MEMPHIS INTL   FAIR      59  35  40 N3        30.13S                  
NWS MEMPHIS      N/A     56 N/A N/A MISG        N/A                   
JACKSON        FAIR      56  34  43 W5        30.13S                  
SOMERVILLE     CLEAR     57  32  38 CALM      30.12S                  
COVINGTON      CLEAR     54  39  58 S3        30.13R                  
UNION CITY     CLEAR     57  36  44 CALM      30.11R                  
BOLIVAR        CLEAR     54  34  47 CALM      30.13R                  
PARIS          CLEAR     46  36  66 CALM      30.11R                  
HUNTINGDON     CLEAR     54  34  47 CALM      30.12R                  
LEXINGTON      CLEAR     59  30  33 NW5       30.12R                  
SELMER         CLEAR     55  30  38 NW3       30.12R                  
SAVANNAH       CLEAR     57  32  38 CALM      30.12R                  
$$

TNZ008-025-027-028-033-062-065-066-230200-
NORTH MIDDLE TENNESSEE
  
CITY           SKY/WX    TMP DP  RH WIND       PRES   REMARKS
NASHVILLE      FAIR      57  28  33 N10       30.10R                  
DICKSON        CLEAR     55  28  35 CALM      30.09R                  
CLARKSVILLE    FAIR      52  31  44 N6        30.11R                  
LEBANON        CLEAR     55  30  38 N9        30.09R                  
SMYRNA         FAIR      58  30  34 N9        30.10R                  
MURFREESBORO   PTCLDY    59  28  31 N7        30.07R                  
COOKEVILLE     CLEAR     55  27  33 N10       30.08R                  
GALLATIN       CLEAR     55  30  38 N6        30.13R                  
CROSSVILLE     FAIR      52  24  33 NW12G22   30.08R                  
ROCKWOOD       CLEAR     54  25  32 N10G20    30.06R                  
$$

TNZ061-075-076-078-094-096-097-230200-
SOUTH MIDDLE TENNESSEE
  
CITY           SKY/WX    TMP DP  RH WIND       PRES   REMARKS
LAWRENCEBURG   CLEAR     55  28  35 CALM      30.10R                  
LEWISBURG      CLEAR     50  32  50 CALM      30.08R                  
FAYETTEVILLE   CLEAR     57  30  35 CALM      30.08R                  
TULLAHOMA      CLEAR     52  30  43 W5        30.07R                  
WINCHESTER     CLEAR     57  28  33 CALM      30.07S                  
MCMINNVILLE    CLEAR     54  27  35 N7        30.08R                  
COLUMBIA       CLEAR     59  25  27 CALM      30.08R                  
SHELBYVILLE    CLEAR     54  30  40 N7        30.08R                  
$$

TNZ017-018-042-046-047-230200-
NORTHEAST TENNESSEE
  
CITY           SKY/WX    TMP DP  RH WIND       PRES   REMARKS
TRI CITIES     FAIR      50  25  37 NW10      30.02R                  
ELIZABETHTON   FAIR      50  25  37 NW7G15    30.00R                  
GREENEVILLE    CLEAR     52  28  40 NW6G20    30.01R                  
$$

TNZ012-013-036-069-073-074-230200-
CENTRAL EAST TENNESSEE
  
CITY           SKY/WX    TMP DP  RH WIND       PRES   REMARKS
KNOXVILLE      FAIR      57  22  25 NW7       30.04R                  
OAK RIDGE      FAIR      59  27  29 W7        30.06R                  
DOWNTOWN KNOXV CLEAR     59  27  29 NW6G13    30.05R                  
GATLINBURG     CLEAR     55  27  33 N6        30.03R                  
MORRISTOWN     PTCLDY    54  27  35 N8G16     30.02R                  
JACKSBORO      CLEAR     54  27  35 VRB6G16   30.09R                  
$$

TNZ083-085-099-230200-
SOUTHEAST TENNESSEE
  
CITY           SKY/WX    TMP DP  RH WIND       PRES   REMARKS
CHATTANOOGA    FAIR      59  26  28 NW5       30.06R                  
DAYTON         CLEAR     59  27  29 NW10G17   30.06R                  
$$

SKY/WX REPORTED AS FAIR MEANS FEW OR NO CLOUDS BELOW
12 THOUSAND FEET.